RH
84 83 81 78 81 82 88 85 88 88 87 89 86 83 84 84 88 78 83 83 87 84 85 86 86 80 81 84 79 50 53 58 72 81 77 75 66 84 75 71 55 62 45 42 43 49 52
85 84 81 81 77 86 85 84 87 91 91 88 86 81 86 89 92 84 83 87 84 88 85 86 86 80 78 92 60 60 52 66 79 78 71 73 47 66 64 60 59 47 47 47 42 40 36
87 84 83 81 80 82 87 90 90 92 92 90 90 85 91 94 83 74 82 80 85 89 89 90 87 80 78 73 53 58 68 81 74 69 71 65 52 58 52 55 45 46 54 54 50 44 40
88 85 84 83 81 81 89 87 89 92 90 91 91 85 93 86 83 82 82 79 84 91 92 89 76 78 77 51 47 48 57 77 92 84 66 56 57 50 50 47 46 51 55 70 47 44 38
89 87 87 85 84 80 85 92 91 90 93 93 94 86 93 84 78 82 70 63 78 69 90 78 78 79 74 49 53 48 54 63 92 89 76 54 57 62 55 66 69 60 79 66 50 41 43
90 88 86 87 86 83 80 86 91 94 93 94 95 91 94 89 66 68 71 56 67 71 69 78 69 75 62 61 51 55 61 62 86 84 88 69 77 80 78 80 84 76 71 58 54 44 43
92 90 91 88 87 84 83 82 82 91 95 95 98 93 79 96 55 58 68 75 74 73 60 79 74 60 56 52 54 62 70 76 86 97 84 78 88 88 79 66 56 54 57 51 47 39 46
94 92 87 89 88 86 85 85 85 82 88 96 93 98 75 74 78 58 66 70 75 72 83 55 56 48 46 46 73 71 82 96 91 95 78 86 88 69 64 55 56 50 56 52 39 41 45
95 93 92 91 89 92 89 87 87 87 86 91 94 99 96 69 73 68 68 74 74 75 89 64 70 77 74 65 79 76 86 87 83 90 78 77 68 56 62 59 60 56 49 48 49 45 43
96 94 93 93 93 91 90 92 91 89 90 90 93 94 99 88 72 64 71 73 75 75 96 94 81 88 74 80 88 88 75 87 90 82 69 63 60 64 62 68 56 62 38 39 55 60 66
96 95 94 95 95 94 93 91 90 94 93 94 96 95 99 81 78 75 72 61 74 81 93 93 90 79 84 87 80 81 79 87 85 76 74 85 77 75 75 66 52 56 47 56 58 64 64
87 94 96 96 96 96 95 95 94 94 96 95 98 99 87 85 78 70 69 79 80 89 97 98 83 84 98 88 83 80 83 80 75 82 83 90 74 87 83 81 67 51 60 63 68 75 90
63 94 96 96 99 96 96 95 94 94 95 89 98 88 89 78 81 77 78 85 94 93 88 89 91 83 82 85 87 78 86 90 93 98 99 90 94 84 82 86 74 63 66 95 95 97 89
67 94 97 96 93 96 94 95 94 93 94 57 72 62 62 73 79 78 80 93 89 87 87 76 77 78 83 78 85 90 92 95 88 88 93 98 97 95 87 88 94 80 61 86 87 98 84
85 96 97 96 95 100 96 91 92 93 83 69 70 69 78 78 80 82 96 93 85 95 68 71 70 72 80 73 80 94 96 88 82 80 88 99 100 90 84 85 91 93 96 52 72 55 85
92 97 96 97 96 89 96 93 92 91 79 52 85 74 77 81 81 87 96 90 90 78 56 52 71 59 85 73 77 86 95 71 84 75 72 86 97 95 88 82 80 89 72 83 94 97 69
85 96 96 96 96 95 92 94 92 90 78 54 90 85 78 77 85 92 94 98 79 52 51 56 61 56 57 64 68 60 63 55 52 64 59 70 77 99 96 99 97 92 92 69 71 86 90
78 94 96 96 93 91 95 94 93 88 90 67 92 94 78 88 97 94 94 83 64 52 48 49 49 51 52 52 46 50 64 56 43 46 58 55 79 98 89 78 73 82 82 69 90 79 74
71 93 94 90 91 92 96 88 91 85 93 92 99 87 79 86 94 83 65 65 60 56 46 45 50 48 46 50 57 52 64 52 48 53 54 56 83 95 87 71 73 93 92 80 77 74 83
76 88 95 90 95 96 95 87 74 54 68 91 96 94 86 95 80 69 65 65 70 55 55 42 45 44 48 49 43 56 65 54 50 50 45 46 70 77 83 70 75 81 76 85 95 91 73
65 81 94 94 94 95 95 92 78 42 63 80 92 90 79 95 73 68 58 55 56 68 56 44 47 49 52 52 49 56 62 64 53 51 49 60 82 72 61 66 72 72 70 76 97 74 79
67 77 97 95 95 95 94 95 80 52 58 66 88 90 84 96 80 63 66 62 59 59 57 56 53 49 42 50 48 54 60 61 62 57 54 64 91 83 81 61 60 72 69 70 72 66 66
71 86 97 92 90 93 94 95 94 64 58 72 73 74 81 84 83 68 71 68 67 58 56 52 55 53 46 63 53 50 44 46 48 62 64 69 86 93 88 70 71 81 74 68 64 63 60
74 88 85 75 76 84 94 96 95 76 71 66 71 80 92 91 67 62 72 68 76 74 74 55 62 57 51 46 44 40 45 45 46 52 53 79 76 90 94 84 95 54 52 57 58 51 60
80 84 76 78 78 81 95 95 96 81 75 74 68 82 91 92 68 55 62 74 74 72 68 65 71 67 63 53 60 63 64 58 52 49 50 53 62 79 83 86 65 50 59 59 66 64 51
86 77 83 85 82 77 92 95 93 91 85 80 79 68 84 90 70 56 60 66 89 90 77 73 68 65 63 79 68 73 81 55 67 60 55 58 55 74 79 70 86 60 50 45 52 81 55
76 81 92 93 78 74 82 84 91 83 78 87 86 73 83 90 65 59 64 76 71 80 93 76 79 76 70 85 81 76 70 51 75 73 76 76 74 86 83 90 70 47 50 49 82 70 63
74 88 94 87 69 73 80 89 89 87 93 86 85 76 76 94 86 67 56 56 59 71 88 84 78 81 89 88 86 81 68 63 62 58 77 83 78 80 78 86 90 55 61 74 68 68 64
85 92 81 82 78 75 82 90 91 83 86 98 91 89 87 92 88 64 67 67 67 52 68 76 85 83 91 97 89 85 73 69 69 77 58 74 67 73 70 73 50 61 54 57 64 73 69
Wind_Speed
19 21 21 22 22 21 22 23 24 25 27 29 30 30 26 23 17 8 6 4 4 5 4 5 6 2 6 4 10 11 6 34 30 27 23 10 12 6 7 5 8 7 7 11 8 9 9
18 20 21 22 22 22 22 23 23 25 28 29 31 30 27 21 12 2 3 1 3 4 4 5 5 2 2 6 8 17 4 27 29 29 23 14 10 10 5 10 5 8 10 6 2 11 7
17 18 19 21 22 23 22 22 22 25 27 28 30 30 26 17 9 5 4 3 2 3 3 5 4 1 4 11 4 9 4 9 21 31 13 18 11 12 7 5 5 4 7 3 8 6 4
16 18 20 20 22 23 23 22 23 24 26 27 28 29 20 15 11 7 4 3 4 5 5 5 3 1 5 12 12 17 9 2 7 23 20 23 17 3 2 3 6 5 6 7 9 7 3
15 17 20 21 22 23 23 23 23 23 24 25 27 25 17 12 10 7 4 4 7 8 4 1 2 2 6 8 6 8 8 3 6 20 20 15 6 3 3 6 5 5 5 8 10 10 6
15 16 19 20 22 23 23 23 23 22 23 23 22 23 18 11 9 8 8 4 4 5 5 3 4 1 4 6 6 6 2 4 4 13 15 9 4 3 5 6 13 16 10 7 9 9 6
13 15 17 19 20 21 23 23 24 23 22 21 21 19 17 10 7 6 10 5 4 3 2 4 6 7 5 13 5 4 7 5 3 10 10 10 6 13 12 3 5 7 8 3 7 6 8
12 14 17 19 20 21 23 24 24 23 23 21 19 15 15 10 6 6 8 3 3 1 4 5 3 2 9 4 2 3 2 6 3 8 11 6 5 5 8 6 6 4 7 11 1 5 12
11 13 16 18 19 20 21 23 23 23 22 21 19 16 11 10 9 2 6 3 2 6 2 2 1 3 2 2 6 4 5 1 10 8 11 8 7 7 8 5 8 6 6 5 6 3 4
11 12 15 16 18 20 22 23 24 24 23 22 20 18 11 8 5 3 1 1 1 2 2 11 7 5 3 5 3 1 4 5 2 7 9 2 4 8 7 8 5 4 5 4 12 6 4
10 12 14 16 18 21 22 23 24 25 24 23 23 17 8 1 6 3 2 1 4 0 5 8 6 3 5 3 6 9 8 1 6 10 1 2 3 4 3 2 4 5 5 7 4 4 4
10 11 13 16 18 21 23 25 26 28 28 27 24 15 4 5 3 3 1 4 3 4 4 1 4 3 6 6 3 4 3 3 1 6 8 4 3 4 3 3 3 2 8 8 5 3 1
9 11 13 16 18 22 24 26 28 29 31 34 24 8 5 5 4 2 2 2 4 5 4 2 3 0 2 4 4 3 3 5 3 4 2 2 3 2 3 4 5 3 7 2 2 1 5
8 11 14 16 20 22 25 29 31 33 34 33 14 1 4 5 7 5 2 1 8 3 3 2 2 4 3 1 3 4 4 3 3 4 4 4 4 2 1 4 3 7 5 5 6 4 4
7 10 14 16 19 21 24 28 32 33 38 32 9 5 3 6 7 10 2 5 4 3 3 2 1 2 2 3 5 6 1 4 3 3 5 4 2 2 0 2 3 3 3 2 2 2 3
7 10 14 16 19 22 25 28 31 33 37 19 10 2 4 10 9 6 3 4 3 4 3 2 3 0 1 3 2 7 7 5 6 5 2 5 5 1 2 1 2 2 2 2 2 2 4
6 9 12 16 19 21 25 28 30 33 36 18 0 2 5 9 8 0 3 4 4 4 0 0 4 1 3 3 4 3 3 4 6 9 6 7 3 3 5 5 5 4 2 3 2 4 3
5 8 12 15 19 21 23 27 30 32 32 16 5 2 11 14 1 2 2 4 4 0 3 3 1 2 1 1 2 1 4 1 2 6 6 5 4 3 4 4 8 2 4 4 4 4 2
4 8 11 15 18 19 22 26 29 31 22 9 3 2 9 7 1 1 3 2 1 1 0 2 1 1 1 2 2 3 4 3 5 2 5 4 2 3 3 1 6 4 5 4 2 1 4
4 7 10 14 17 18 22 27 31 33 21 3 1 3 1 2 2 2 4 5 4 2 2 2 1 2 1 1 1 3 2 1 3 2 0 2 3 5 7 4 5 5 11 11 6 2 3
3 6 9 13 16 18 22 25 31 34 17 2 3 2 2 2 3 3 1 1 3 4 2 3 2 4 4 3 4 4 3 2 2 1 1 3 3 2 2 3 3 3 5 13 10 8 5
2 5 9 12 15 18 21 24 27 32 15 7 3 3 3 3 5 3 1 3 2 2 4 4 3 6 4 2 2 4 6 4 4 2 3 2 2 2 3 4 2 4 7 7 8 10 7
2 4 7 12 14 17 19 22 24 26 20 8 7 6 2 5 5 1 2 3 4 2 1 2 2 2 2 2 1 3 4 2 6 7 5 4 4 2 2 2 3 7 13 15 7 6 13
4 2 6 12 12 13 17 17 20 22 17 9 7 4 2 3 3 4 6 4 7 5 0 3 4 1 1 3 2 3 5 5 5 4 4 5 6 3 3 2 1 6 3 8 16 9 9
5 2 4 9 11 12 15 16 16 18 15 10 13 5 3 3 4 6 11 4 6 5 2 1 3 1 4 1 2 2 1 1 3 1 1 2 4 2 2 3 7 3 3 5 6 7 13
7 3 2 7 8 10 12 15 16 14 14 12 9 11 2 1 2 5 3 4 2 4 4 3 1 4 3 2 2 3 3 4 3 3 1 2 3 4 1 3 4 3 1 2 3 5 2
6 3 3 5 7 8 10 13 13 13 11 10 4 13 2 2 3 4 3 3 5 3 3 2 4 2 3 1 0 2 3 2 3 5 4 2 1 5 4 3 6 6 4 2 3 4 4
7 4 4 3 4 6 9 11 11 12 12 10 4 4 4 2 6 3 5 2 4 3 2 4 1 3 1 2 3 3 3 4 2 4 6 6 5 3 4 3 7 3 3 3 3 1 3
7 5 4 4 4 6 7 10 8 11 11 6 3 4 3 3 5 16 22 22 15 2 1 3 3 2 3 2 1 2 2 1 5 3 1 3 6 4 7 5 5 5 1 3 5 4 3
Wind_Direction
1 358 358 357 354 353 351 350 353 349 347 347 347 346 341 336 330 314 299 277 303 320 325 347 339 333 136 143 258 284 328 188 187 195 192 188 177 181 168 173 167 222 172 221 222 135 209
1 359 356 357 355 354 354 354 353 349 349 353 352 350 346 342 340 24 4 9 331 347 331 346 358 308 212 236 272 307 267 182 186 180 186 197 184 189 187 174 185 181 232 336 17 169 196
359 357 357 356 355 355 358 355 354 352 353 355 358 358 358 9 54 51 59 359 327 326 329 357 10 247 251 239 223 355 351 186 190 185 183 199 188 191 159 143 209 261 161 273 303 164 176
356 356 355 356 357 356 357 357 355 355 356 357 1 5 7 39 27 49 28 347 335 310 306 282 332 237 257 268 269 277 300 152 181 206 193 198 198 235 123 206 134 167 104 166 225 155 201
354 357 355 355 356 358 357 359 355 354 358 359 2 10 12 29 25 12 19 3 345 337 263 280 143 183 274 345 238 248 234 252 307 169 205 201 163 203 104 126 87 137 168 188 181 193 147
355 358 356 356 356 357 358 358 356 354 357 357 3 6 7 11 31 19 356 13 40 27 73 191 262 250 273 328 316 163 142 291 340 167 208 163 139 120 144 158 182 183 185 184 188 193 171
355 357 356 357 358 357 357 357 357 355 355 354 357 3 1 355 18 21 357 334 28 7 240 176 222 250 248 297 270 120 131 275 229 206 163 175 148 186 178 104 117 127 146 183 210 213 179
354 356 355 358 359 357 357 355 356 355 352 351 349 354 357 3 350 15 4 59 58 271 319 241 349 246 256 284 64 44 13 214 165 144 139 136 171 156 145 175 220 192 173 216 279 202 189
351 355 354 358 357 358 357 355 354 354 351 347 344 340 342 332 336 19 75 80 359 341 232 358 42 309 344 84 78 256 216 172 138 143 145 134 149 155 162 189 210 241 175 200 159 84 17
348 351 353 353 357 0 359 355 352 352 349 346 339 333 328 331 322 322 185 178 196 335 66 355 3 27 30 311 101 2 39 48 121 119 122 79 103 162 182 211 171 243 213 160 138 121 197
344 345 350 352 354 356 355 354 350 347 346 344 336 331 315 222 304 291 272 33 4 258 62 344 327 5 359 28 145 4 33 314 58 109 131 137 103 133 152 186 149 238 126 120 118 106 89
338 341 348 350 351 354 353 350 348 347 344 343 338 327 292 161 216 250 16 338 322 44 64 88 293 222 183 186 96 128 84 30 347 71 53 37 25 45 46 27 45 175 83 52 51 85 16
335 341 344 349 352 352 351 348 348 346 344 342 343 318 206 166 156 128 296 344 30 68 347 280 244 87 26 101 80 65 71 114 122 109 97 79 17 7 38 68 355 277 93 71 10 357 220
333 343 342 349 354 351 351 348 346 346 345 348 350 229 155 151 154 163 146 54 60 329 198 263 227 174 48 88 84 76 100 135 229 96 120 156 165 124 30 139 201 216 135 166 185 201 228
338 347 346 347 350 350 351 350 346 346 345 349 1 142 178 203 192 158 124 49 169 180 309 211 321 265 66 131 122 87 243 155 175 191 138 139 105 144 60 94 210 187 244 199 105 177 76
344 354 351 348 348 351 350 350 348 347 344 356 335 251 153 163 167 131 85 148 187 228 328 257 264 121 117 130 138 180 190 188 143 203 196 150 110 127 158 185 182 193 323 88 14 203 235
345 359 352 353 354 353 351 351 351 350 347 356 29 60 161 167 167 132 120 202 206 212 147 73 338 251 143 157 189 201 88 156 166 192 188 160 116 136 143 205 176 181 192 235 150 160 204
351 353 355 356 357 356 354 353 354 354 353 13 347 63 172 160 133 223 128 186 330 155 218 254 270 7 39 207 132 52 130 104 79 161 164 184 114 141 208 185 213 196 168 210 146 236 218
351 355 0 357 358 1 358 357 357 355 3 339 339 266 173 198 3 64 174 159 280 310 318 327 175 349 357 52 104 100 79 309 35 80 160 174 128 109 119 144 188 196 202 233 39 3 215
352 360 2 359 4 3 1 360 360 359 357 360 17 14 296 194 244 225 181 182 182 217 271 301 122 333 8 40 37 136 115 104 2 106 160 96 146 161 189 204 143 194 182 197 162 205 202
349 12 8 4 7 6 5 3 3 4 4 19 28 20 45 307 335 349 296 105 173 177 249 213 264 227 226 179 173 166 125 119 275 204 16 98 149 114 277 135 122 187 182 183 189 214 164
63 27 10 13 11 10 10 7 7 9 7 68 55 3 347 285 288 294 331 210 91 106 160 227 205 269 239 59 178 171 139 163 192 207 164 51 174 98 305 230 183 248 242 223 215 218 244
119 45 16 16 15 16 14 13 18 20 29 42 1 333 312 286 310 30 13 7 46 72 308 219 279 346 109 159 119 130 153 168 182 154 183 136 129 87 259 23 340 297 228 213 216 203 211
146 55 26 18 13 18 17 17 14 19 35 32 10 310 351 287 25 4 4 6 13 340 75 313 39 32 269 299 328 26 52 57 110 118 150 145 144 111 203 44 261 246 169 197 214 225 207
167 205 31 11 9 13 17 15 14 17 23 33 27 18 14 319 323 356 355 350 329 312 245 87 20 264 319 4 96 108 15 11 194 152 275 169 146 182 145 209 279 269 198 188 173 263 217
197 207 343 3 8 18 21 23 21 9 11 12 13 12 49 38 288 311 311 310 327 334 322 123 58 357 48 59 246 194 193 206 183 183 131 9 141 133 182 256 253 288 218 231 108 278 332
199 243 305 339 5 23 21 12 11 15 17 2 11 12 24 329 285 5 343 310 341 357 302 333 356 39 58 92 282 201 239 214 182 190 171 156 177 194 223 254 282 251 195 111 118 260 315
200 233 288 303 357 10 16 11 10 5 4 0 320 8 48 301 284 302 332 345 334 350 304 351 326 353 71 152 164 247 169 239 213 182 169 166 178 183 195 217 265 183 90 187 208 37 86
204 240 258 264 341 359 12 12 7 354 347 335 309 315 291 196 252 283 286 279 256 215 98 314 318 329 358 249 39 306 269 191 182 237 84 185 183 189 178 211 238 205 240 190 157 152 165